Voltar ao catálogo

STARLINK-38103

AtivoComunicaçõesVLEO
NORAD 100022·PAYLOAD·🇺🇸 United States

Lançado Jul 14, 2026 de Vandenberg Space Force Base

Loading…

Próximas Passagens (próximas 24 horas)

TLE

AtualizadoSource: Space-Track

Época: Sep 14, 2026, 22:51 UTC

1 A0022U 26160X   26257.95269972 -.00731282  00000-0 -62053-2 0  9993
2 A0022  70.0015 210.3965 0003930 255.5836 104.4925 15.71487737 11124

Acompanhe STARLINK-38103 em tempo real com AllMySat

Download on the App Store